2023/01/12 00:00:00,16.7, 4.7
2023/01/12 00:10:00,16.7, 4.7
2023/01/12 00:20:00,16.7, 4.6
2023/01/12 00:30:00,16.7, 4.4
2023/01/12 00:40:00,16.7, 4.6
2023/01/12 00:50:00,16.7, 5.0
2023/01/12 01:00:00,16.7, 5.3
2023/01/12 01:10:00,16.7, 4.8
2023/01/12 01:20:00,16.5, 4.9
2023/01/12 01:30:00,16.2, 5.4
2023/01/12 01:40:00,16.2, 5.1
2023/01/12 01:50:00,16.2, 5.1
2023/01/12 02:00:00,16.1, 5.2
2023/01/12 02:10:00,16.0, 4.7
2023/01/12 02:20:00,16.1, 5.4
2023/01/12 02:30:00,16.0, 5.0
2023/01/12 02:40:00,15.9, 4.7
2023/01/12 02:50:00,15.9, 5.1
2023/01/12 03:00:00,15.9, 4.8
2023/01/12 03:10:00,16.0, 4.6
2023/01/12 03:20:00,15.9, 4.3
2023/01/12 03:30:00,15.8, 4.1
2023/01/12 03:40:00,15.7, 4.6
2023/01/12 03:50:00,15.7, 4.2
2023/01/12 04:00:00,15.7, 4.6
2023/01/12 04:10:00,15.7, 5.1
2023/01/12 04:20:00,15.7, 5.3
2023/01/12 04:30:00,15.7, 5.1
2023/01/12 04:40:00,15.6, 5.2
2023/01/12 04:50:00,15.6, 6.0
2023/01/12 05:00:00,15.6, 5.7
2023/01/12 05:10:00,15.6, 5.9
2023/01/12 05:20:00,15.7, 6.1
2023/01/12 05:30:00,15.6, 6.0
2023/01/12 05:40:00,15.6, 6.0
2023/01/12 05:50:00,15.6, 6.1
2023/01/12 06:00:00,15.6, 6.5
2023/01/12 06:10:00,15.7, 6.2
2023/01/12 06:20:00,15.7, 6.0
2023/01/12 06:30:00,15.8, 5.7
2023/01/12 06:40:00,15.8, 5.9
2023/01/12 06:50:00,15.8, 6.0
2023/01/12 07:00:00,15.8, 6.0
2023/01/12 07:10:00,15.8, 5.9
2023/01/12 07:20:00,15.8, 5.7
2023/01/12 07:30:00,15.9, 5.9
2023/01/12 07:40:00,15.9, 6.3
2023/01/12 07:50:00,15.9, 6.4
2023/01/12 08:00:00,16.0, 6.8
2023/01/12 08:10:00,15.9, 6.8
2023/01/12 08:20:00,16.1, 6.9
2023/01/12 08:30:00,16.0, 6.7
2023/01/12 08:40:00,16.2, 8.9
2023/01/12 08:50:00,16.4, 9.4
2023/01/12 09:00:00,16.7, 9.8
2023/01/12 09:10:00,16.9, 9.2
2023/01/12 09:20:00,17.1, 9.3
2023/01/12 09:30:00,17.2, 9.9
2023/01/12 09:40:00,17.3,10.3
2023/01/12 09:50:00,17.3,10.2
2023/01/12 10:00:00,17.5,11.0
2023/01/12 10:10:00,---,11.7
2023/01/12 10:20:00,66.1,12.4
2023/01/12 10:30:00,74.3,13.1
2023/01/12 10:40:00,42.1,13.5
2023/01/12 10:50:00,98.5,15.6
2023/01/12 11:00:00,98.5,16.2
2023/01/12 11:10:00,98.6,15.0
2023/01/12 11:20:00,98.4,16.1
2023/01/12 11:30:00,98.3,14.8
2023/01/12 11:40:00,98.3,14.8
2023/01/12 11:50:00,98.4,13.1
2023/01/12 12:00:00,98.5,14.1
2023/01/12 12:10:00,98.3,14.1
2023/01/12 12:20:00,98.3,14.4
2023/01/12 12:30:00,98.5,14.1
2023/01/12 12:40:00,98.2,13.6
2023/01/12 12:50:00,98.6,14.8
2023/01/12 13:00:00,98.6,14.9
2023/01/12 13:10:00,98.3,13.7
2023/01/12 13:20:00,98.0,14.4
2023/01/12 13:30:00,97.8,13.7
2023/01/12 13:40:00,97.4,14.3
2023/01/12 13:50:00,96.8,14.0
2023/01/12 14:00:00,96.3,13.4
2023/01/12 14:10:00,95.9,13.8
2023/01/12 14:20:00,---,13.8
2023/01/12 14:30:00,38.6,13.3
2023/01/12 14:40:00,14.3,12.9
2023/01/12 14:50:00,14.0,12.8
2023/01/12 15:00:00,13.7,12.4
2023/01/12 15:10:00,13.4,12.7
2023/01/12 15:20:00,13.3,12.6
2023/01/12 15:30:00,13.1,13.2
2023/01/12 15:40:00,12.9,14.3
2023/01/12 15:50:00,12.6,13.2
2023/01/12 16:00:00,12.1,12.6
2023/01/12 16:10:00,12.4,13.2
2023/01/12 16:20:00,12.2,13.2
2023/01/12 16:30:00,11.9,12.3
2023/01/12 16:40:00,11.6,11.7
2023/01/12 16:50:00,11.5,10.8
2023/01/12 17:00:00,11.3, 9.3
2023/01/12 17:10:00,11.1, 8.0
2023/01/12 17:20:00,11.2, 7.5
2023/01/12 17:30:00,11.3, 7.3
2023/01/12 17:40:00,11.2, 7.4
2023/01/12 17:50:00,11.1, 7.3
2023/01/12 18:00:00,10.9, 7.2
2023/01/12 18:10:00,10.8, 7.5
2023/01/12 18:20:00,10.6, 7.3
2023/01/12 18:30:00,10.8, 7.4
2023/01/12 18:40:00,10.8, 7.5
2023/01/12 18:50:00,10.8, 7.1
2023/01/12 19:00:00,10.8, 7.4
2023/01/12 19:10:00,10.8, 7.5
2023/01/12 19:20:00,10.9, 7.3
2023/01/12 19:30:00,10.9, 7.4
2023/01/12 19:40:00,10.9, 7.6
2023/01/12 19:50:00,10.7, 7.5
2023/01/12 20:00:00,10.7, 7.4
2023/01/12 20:10:00,10.6, 7.4
2023/01/12 20:20:00,10.6, 7.4
2023/01/12 20:30:00,10.5, 7.3
2023/01/12 20:40:00,10.5, 7.6
2023/01/12 20:50:00,10.6, 7.6
2023/01/12 21:00:00,10.4, 7.6
2023/01/12 21:10:00, 9.8, 7.4
2023/01/12 21:20:00, 9.7, 7.4
2023/01/12 21:30:00, 9.7, 7.3
2023/01/12 21:40:00, 9.2, 7.2
2023/01/12 21:50:00, 8.8, 7.2
2023/01/12 22:00:00, 8.7, 7.3
2023/01/12 22:10:00, 8.4, 7.4
2023/01/12 22:20:00, 8.1, 7.3
2023/01/12 22:30:00, 8.8, 7.3
2023/01/12 22:40:00, 8.6, 6.6
2023/01/12 22:50:00, 7.9, 7.3
2023/01/12 23:00:00, 7.7, 7.4
2023/01/12 23:10:00, 7.8, 7.4
2023/01/12 23:20:00, 8.0, 7.4
2023/01/12 23:30:00, 8.1, 7.4
2023/01/12 23:40:00, 8.0, 7.7
2023/01/12 23:50:00, 8.3, 7.1
